Time,TemperatureF,DewpointF,PressureIn,WindDirection,WindDirectionDegrees,WindSpeedMPH,WindSpeedGustMPH,Humidity,HourlyPrecipIn,Conditions,Clouds,dailyrainin,SolarRadiationWatts/m^2,SoftwareType,DateUTC
2013-07-08 00:02:00,71.0,69.0,30.42,SW,218,1.0,6.0,93,0.00,,,0.00,0.000000,,2013-07-08 04:02:00,
2013-07-08 00:12:00,71.0,69.0,30.42,SW,218,1.0,6.0,93,0.00,,,0.00,0.000000,,2013-07-08 04:12:00,
2013-07-08 00:42:00,71.0,70.0,30.43,WNW,291,1.0,6.0,96,0.00,,,0.00,0.000000,,2013-07-08 04:42:00,
2013-07-08 00:53:00,71.0,70.0,30.43,WNW,291,1.0,6.0,96,0.00,,,0.00,0.000000,,2013-07-08 04:53:00,
2013-07-08 01:01:00,71.0,70.0,30.43,WNW,291,1.0,6.0,96,0.00,,,0.00,0.000000,,2013-07-08 05:01:00,
2013-07-08 01:12:00,71.0,70.0,30.43,WNW,291,1.0,6.0,96,0.00,,,0.00,0.000000,,2013-07-08 05:12:00,
2013-07-08 01:43:00,70.0,69.0,30.42,SSW,195,2.0,3.0,98,0.00,,,0.00,0.000000,,2013-07-08 05:43:00,
2013-07-08 01:53:00,70.0,69.0,30.42,SSW,195,2.0,3.0,98,0.00,,,0.00,0.000000,,2013-07-08 05:53:00,
2013-07-08 02:01:00,70.0,69.0,30.42,SSW,195,2.0,3.0,98,0.00,,,0.00,0.000000,,2013-07-08 06:01:00,
2013-07-08 02:12:00,70.0,69.0,30.42,SSW,195,2.0,3.0,98,0.00,,,0.00,0.000000,,2013-07-08 06:12:00,
2013-07-08 02:43:00,71.0,70.0,30.41,South,186,2.0,4.0,98,0.00,,,0.00,0.000000,,2013-07-08 06:43:00,
2013-07-08 02:53:00,71.0,70.0,30.41,South,186,2.0,4.0,98,0.00,,,0.00,0.000000,,2013-07-08 06:53:00,
2013-07-08 03:02:00,71.0,70.0,30.41,South,186,2.0,4.0,98,0.00,,,0.00,0.000000,,2013-07-08 07:02:00,
2013-07-08 03:12:00,71.0,70.0,30.41,South,186,2.0,4.0,98,0.00,,,0.00,0.000000,,2013-07-08 07:12:00,
2013-07-08 03:44:00,73.0,72.0,30.41,South,174,2.0,4.0,98,0.00,,,0.00,0.000000,,2013-07-08 07:44:00,
2013-07-08 03:53:00,73.0,72.0,30.41,South,174,2.0,4.0,98,0.00,,,0.00,0.000000,,2013-07-08 07:53:00,
2013-07-08 04:02:00,73.0,72.0,30.41,South,174,2.0,4.0,98,0.00,,,0.00,0.000000,,2013-07-08 08:02:00,
2013-07-08 04:12:00,73.0,72.0,30.41,South,174,2.0,4.0,98,0.00,,,0.00,0.000000,,2013-07-08 08:12:00,
2013-07-08 04:42:00,72.0,71.0,30.41,SSW,204,2.0,5.0,98,0.00,,,0.00,0.000000,,2013-07-08 08:42:00,
2013-07-08 04:53:00,72.0,71.0,30.41,SSW,204,2.0,5.0,98,0.00,,,0.00,0.000000,,2013-07-08 08:53:00,
2013-07-08 05:02:00,72.0,71.0,30.41,SSW,204,2.0,5.0,98,0.00,,,0.00,0.000000,,2013-07-08 09:02:00,
2013-07-08 05:11:00,72.0,71.0,30.41,SSW,204,2.0,5.0,98,0.00,,,0.00,0.000000,,2013-07-08 09:11:00,
2013-07-08 05:43:00,69.0,68.0,30.42,SW,224,2.0,3.0,98,0.00,,,0.00,0.000000,,2013-07-08 09:43:00,
2013-07-08 05:53:00,69.0,68.0,30.42,SW,224,2.0,3.0,98,0.00,,,0.00,0.000000,,2013-07-08 09:53:00,
2013-07-08 06:02:00,69.0,68.0,30.42,SW,224,2.0,3.0,98,0.00,,,0.00,0.000000,,2013-07-08 10:02:00,
2013-07-08 06:11:00,69.0,68.0,30.42,SW,224,2.0,3.0,98,0.00,,,0.00,0.000000,,2013-07-08 10:11:00,
2013-07-08 06:43:00,70.0,70.0,30.43,WSW,251,1.0,4.0,99,0.00,,,0.00,0.000000,,2013-07-08 10:43:00,
2013-07-08 06:53:00,70.0,70.0,30.43,WSW,251,1.0,4.0,99,0.00,,,0.00,0.000000,,2013-07-08 10:53:00,
2013-07-08 07:02:00,70.0,70.0,30.43,WSW,251,1.0,4.0,99,0.00,,,0.00,0.000000,,2013-07-08 11:02:00,
2013-07-08 07:11:00,70.0,70.0,30.43,WSW,251,1.0,4.0,99,0.00,,,0.00,0.000000,,2013-07-08 11:11:00,
2013-07-08 07:43:00,72.0,72.0,30.43,SSW,207,3.0,5.0,99,0.00,,,0.00,35.000000,,2013-07-08 11:43:00,
2013-07-08 07:53:00,72.0,72.0,30.43,SSW,207,3.0,5.0,99,0.00,,,0.00,35.000000,,2013-07-08 11:53:00,
2013-07-08 08:02:00,72.0,72.0,30.43,SSW,207,3.0,5.0,99,0.00,,,0.00,35.000000,,2013-07-08 12:02:00,
2013-07-08 08:12:00,72.0,72.0,30.43,SSW,207,3.0,5.0,99,0.00,,,0.00,35.000000,,2013-07-08 12:12:00,
2013-07-08 08:43:00,78.0,73.0,30.44,SW,226,3.0,8.0,85,0.00,,,0.00,188.000000,,2013-07-08 12:43:00,
2013-07-08 08:53:00,78.0,73.0,30.44,SW,226,3.0,8.0,85,0.00,,,0.00,188.000000,,2013-07-08 12:53:00,
2013-07-08 09:02:00,78.0,73.0,30.44,SW,226,3.0,8.0,85,0.00,,,0.00,188.000000,,2013-07-08 13:02:00,
2013-07-08 09:11:00,78.0,73.0,30.44,SW,226,3.0,8.0,85,0.00,,,0.00,188.000000,,2013-07-08 13:11:00,
2013-07-08 09:43:00,82.0,72.0,30.45,WSW,245,5.0,9.0,72,0.00,,,0.00,447.000000,,2013-07-08 13:43:00,
2013-07-08 09:53:00,82.0,72.0,30.45,WSW,245,5.0,9.0,72,0.00,,,0.00,447.000000,,2013-07-08 13:53:00,
2013-07-08 10:02:00,82.0,72.0,30.45,WSW,245,5.0,9.0,72,0.00,,,0.00,447.000000,,2013-07-08 14:02:00,
2013-07-08 10:12:00,82.0,72.0,30.45,WSW,245,5.0,9.0,72,0.00,,,0.00,447.000000,,2013-07-08 14:12:00,
2013-07-08 10:43:00,85.0,73.0,30.44,SSW,210,6.0,13.0,67,0.00,,,0.00,659.000000,,2013-07-08 14:43:00,
2013-07-08 10:53:00,85.0,73.0,30.44,SSW,210,6.0,13.0,67,0.00,,,0.00,659.000000,,2013-07-08 14:53:00,
2013-07-08 11:02:00,85.0,73.0,30.44,SSW,210,6.0,13.0,67,0.00,,,0.00,659.000000,,2013-07-08 15:02:00,
2013-07-08 11:12:00,85.0,73.0,30.44,SSW,210,6.0,13.0,67,0.00,,,0.00,659.000000,,2013-07-08 15:12:00,
2013-07-08 11:53:00,88.0,73.0,30.45,South,170,6.0,16.0,62,0.00,,,0.00,650.000000,,2013-07-08 15:53:00,
2013-07-08 12:02:00,88.0,73.0,30.45,South,170,6.0,16.0,62,0.00,,,0.00,650.000000,,2013-07-08 16:02:00,
2013-07-08 12:11:00,88.0,73.0,30.45,South,170,6.0,16.0,62,0.00,,,0.00,650.000000,,2013-07-08 16:11:00,
2013-07-08 12:43:00,87.0,71.0,30.44,SW,223,6.0,12.0,60,0.00,,,0.00,855.000000,,2013-07-08 16:43:00,
2013-07-08 12:58:00,87.0,71.0,30.44,SW,223,6.0,12.0,60,0.00,,,0.00,855.000000,,2013-07-08 16:58:00,
2013-07-08 13:08:00,87.0,71.0,30.44,SW,223,6.0,12.0,60,0.00,,,0.00,855.000000,,2013-07-08 17:08:00,
2013-07-08 13:15:00,87.0,71.0,30.44,SW,223,6.0,12.0,60,0.00,,,0.00,855.000000,,2013-07-08 17:15:00,
2013-07-08 13:48:00,87.0,72.0,30.43,SSW,212,5.0,14.0,62,0.00,,,0.00,865.000000,,2013-07-08 17:48:00,
2013-07-08 13:56:00,87.0,72.0,30.43,SSW,212,5.0,14.0,62,0.00,,,0.00,865.000000,,2013-07-08 17:56:00,
2013-07-08 15:02:00,86.0,72.0,30.42,South,184,7.0,15.0,63,0.00,,,0.00,778.000000,,2013-07-08 19:02:00,
2013-07-08 15:18:00,88.0,74.0,30.40,South,182,7.0,15.0,63,0.00,,,0.00,857.000000,,2013-07-08 19:18:00,
2013-07-08 15:58:00,88.0,74.0,30.40,South,182,7.0,15.0,63,0.00,,,0.00,857.000000,,2013-07-08 19:58:00,
2013-07-08 16:08:00,88.0,74.0,30.40,South,182,7.0,15.0,63,0.00,,,0.00,857.000000,,2013-07-08 20:08:00,
2013-07-08 16:18:00,86.0,73.0,30.39,South,176,7.0,17.0,65,0.00,,,0.00,718.000000,,2013-07-08 20:18:00,
2013-07-08 16:57:00,86.0,73.0,30.39,South,176,7.0,17.0,65,0.00,,,0.00,718.000000,,2013-07-08 20:57:00,
2013-07-08 17:18:00,86.0,73.0,30.38,South,189,8.0,17.0,66,0.00,,,0.00,555.000000,,2013-07-08 21:18:00,
2013-07-08 17:58:00,86.0,73.0,30.38,South,189,8.0,17.0,66,0.00,,,0.00,555.000000,,2013-07-08 21:58:00,
2013-07-08 18:12:00,86.0,73.0,30.38,South,189,8.0,17.0,66,0.00,,,0.00,555.000000,,2013-07-08 22:12:00,
2013-07-08 18:18:00,84.0,72.0,30.37,South,184,6.0,18.0,67,0.00,,,0.00,480.000000,,2013-07-08 22:18:00,
2013-07-08 19:01:00,84.0,72.0,30.37,South,184,6.0,18.0,67,0.00,,,0.00,480.000000,,2013-07-08 23:01:00,
2013-07-08 19:18:00,81.0,72.0,30.37,South,191,6.0,18.0,75,0.00,,,0.00,116.000000,,2013-07-08 23:18:00,
2013-07-08 20:01:00,81.0,72.0,30.37,South,191,6.0,18.0,75,0.00,,,0.00,116.000000,,2013-07-09 00:01:00,
2013-07-08 20:11:00,81.0,72.0,30.37,South,191,6.0,18.0,75,0.00,,,0.00,116.000000,,2013-07-09 00:11:00,
2013-07-08 20:18:00,77.0,71.0,30.40,SW,229,4.0,15.0,82,0.00,,,0.00,19.000000,,2013-07-09 00:18:00,
2013-07-08 21:11:00,77.0,71.0,30.40,SW,229,4.0,15.0,82,0.00,,,0.00,19.000000,,2013-07-09 01:11:00,
2013-07-08 21:18:00,76.0,73.0,30.40,SW,222,2.0,7.0,89,0.00,,,0.00,1.000000,,2013-07-09 01:18:00,
2013-07-08 22:11:00,76.0,73.0,30.40,SW,222,2.0,7.0,89,0.00,,,0.00,1.000000,,2013-07-09 02:11:00,
2013-07-08 22:18:00,75.0,71.0,30.42,SSW,195,3.0,6.0,87,0.00,,,0.00,0.000000,,2013-07-09 02:18:00,
2013-07-08 23:12:00,75.0,71.0,30.42,SSW,195,3.0,6.0,87,0.00,,,0.00,0.000000,,2013-07-09 03:12:00,